Volver al catálogo

DELTA 1 DEB

ActivoHEO
NORAD 4841·DEBRIS·🇺🇸 United States

Lanzado Jul 4, 1968 desde Vandenberg Space Force Base

Loading…

Próximos Pases (próximas 24 horas)

TLE

EnvejeciendoSource: Space-Track

Época: Aug 31, 2026, 11:34 UTC

1 04841U 68055D   26243.48197500  .00000107  00000-0  20284-3 0  9999
2 04841 120.7191 356.8206 2699373 248.2096 150.3623  9.29294698142432

Sigue DELTA 1 DEB en tiempo real con AllMySat

Download on the App Store